Location: Finch Observatory
(42.1604°N, 72.0115°W)
Time: 11:53:41
(UTC-04:00)

Envisat - Visible Passes

Search period start: 23 July 2018 00:00
Search period end: 02 August 2018 00:00
Orbit: 764 x 766 km, 98.2° (Epoch: 22 July)

Date Brightness Start Highest point End Pass type
(mag) Time Alt. Az. Time Alt. Az. Time Alt. Az.
23 Jul 5.3 20:57:50 10° SSW 21:01:56 24° W 21:06:03 10° NW visible
25 Jul 5.7 21:25:12 10° WSW 21:27:46 14° W 21:30:21 10° WNW visible
26 Jul 4.9 20:46:14 10° SSW 20:50:40 31° W 20:55:10 10° NW visible
28 Jul 5.6 21:13:07 10° SW 21:16:28 18° W 21:19:51 10° NW visible
29 Jul 4.5 20:34:44 10° SSW 20:39:27 38° W 20:44:12 10° NNW visible
31 Jul 5.4 21:01:17 10° SW 21:05:12 22° W 21:09:08 10° NW visible
